AZO955 UHSS-UEST

Flight info

Callsign AZO955
Flight time N/A
Altitude 35000
Route IDRUT1 IDRUT R446 LIKON B223 ODEPI B933 OMAVI/K0835F370 B933 INDIK/K0828F360 A950 NEBAT W126 DAZRI DAZRI2
Aircraft A320/M-SDE3FGHIRWY/LB1

Departure

Time N/A
Airport Yuzhno-Sakhalinsk International Airport (UHSS)

Arrival

Time 2026-05-07 23:45
Airport Tiksi Airport (UEST)
Time Latitude Longitude Altitude Speed Heading
2026-05-07 23:36 71.29228 129.62018 8526 ft 281 kts 328°
2026-05-07 23:37 71.33078 129.52247 7664 ft 275 kts 314°
2026-05-07 23:37 71.36123 129.43145 7221 ft 270 kts 314°
2026-05-07 23:38 71.38714 129.35362 6593 ft 269 kts 314°
2026-05-07 23:38 71.42481 129.24019 5657 ft 269 kts 314°
2026-05-07 23:39 71.45990 129.13357 4621 ft 266 kts 314°
2026-05-07 23:40 71.48881 129.04542 3840 ft 242 kts 314°
2026-05-07 23:40 71.49286 129.03300 3736 ft 239 kts 314°
2026-05-07 23:40 71.51592 128.96227 3111 ft 222 kts 314°
2026-05-07 23:41 71.54035 128.88741 2457 ft 206 kts 314°
2026-05-07 23:41 71.57204 128.84878 2404 ft 177 kts 359°
2026-05-07 23:42 71.60062 128.85937 2348 ft 156 kts
2026-05-07 23:43 71.62589 128.87001 1347 ft 181 kts
2026-05-07 23:44 71.66830 128.89010 267 ft 165 kts
2026-05-07 23:44 71.69903 128.90428 35 ft 61 kts
2026-05-07 23:45 71.70507 128.90693 29 ft 23 kts
2026-05-07 23:45 71.70539 128.90686 31 ft 9 kts 346°
2026-05-07 23:45 71.70577 128.90366 33 ft 11 kts 278°
2026-05-07 23:46 71.70579 128.90290 35 ft 0 kts 275°
2026-05-07 23:47 71.70580 128.90236 36 ft 3 kts 274°
2026-05-07 23:47 71.70594 128.89912 37 ft 11 kts 279°
2026-05-07 23:48 71.70497 128.89652 37 ft 10 kts 187°
2026-05-07 23:48 71.70430 128.89626 37 ft 8 kts 187°
2026-05-07 23:49 71.70388 128.89835 35 ft 1 kts 16°
2026-05-07 23:49 71.70421 128.89855 37 ft 0 kts 11°
2026-05-07 23:50 71.70434 128.89813 35 ft 0 kts 276°
2026-05-07 23:51 71.70434 128.89808 35 ft 0 kts 276°